Regional Weather Roundup
Issued by NWS

Home | Current Version | Previous Version | Graphics & Text | Print | Product List | Glossary On
Versions: 1 2 3 4 5 6 7 8 9 10 11 12 13 14 15 16 17 18 19 20 21 22 23 24 25 26 27 28 29 30 31 32 33 34 35 36 37 38 39 40 41 42 43 44 45 46 47 48 49 50
000
ASUS43 KFSD 312202
RWRSD

WEATHER ROUNDUP FOR SOUTH DAKOTA
NATIONAL WEATHER SERVICE SIOUX FALLS SD
500 PM CDT MON AUG 31 2015

NOTE: "FAIR" INDICATES FEW OR NO CLOUDS BELOW 12,000 FEET WITH NO
SIGNIFICANT WEATHER AND/OR OBSTRUCTIONS TO VISIBILITY.


SDZ001>005-009-010-012>017-312300-
NORTHWEST AND NORTH CENTRAL SOUTH DAKOTA

CITY           SKY/WX    TMP DP  RH WIND       PRES   REMARKS
BUFFALO          N/A     78  43  28 E7        29.87F
FAITH            N/A     78  46  32 NE7       29.93F
MOBRIDGE       CLOUDY    82  59  45 CALM      29.87F
$$

SDZ012>016-024>037-041>051-057-063-072>074-312300-
SOUTHWEST AND SOUTH CENTRAL SOUTH DAKOTA

CITY           SKY/WX    TMP DP  RH WIND       PRES   REMARKS
RAPID CTY ARPT PTSUNNY   75  57  53 SE13      29.97F
PIERRE         PTSUNNY   77  61  57 CALM      29.90S
CUSTER         MOSUNNY   71  52  50 SE8       30.08F
ELLSWORTH AFB  MOSUNNY   75  56  51 SE7       29.96F
PHILIP         PTSUNNY   79  60  52 SE5       29.92F
PINE RIDGE     PTSUNNY   81  56  42 CALM      29.98F
WINNER         FAIR      80  61  52 NW9       29.92S
$$

SDZ004>011-016>023-039-040-312300-
NORTHEAST SOUTH DAKOTA

CITY           SKY/WX    TMP DP  RH WIND       PRES   REMARKS
ABERDEEN       CLOUDY    77  64  64 NE6       29.86F
WATERTOWN      SUNNY     84  66  54 SW9       29.86R
BROOKINGS      PTSUNNY   82  70  65 SW13      29.89R
$$

SDZ017-020-022-023-036>040-048>070-312300-
SOUTHEAST SOUTH DAKOTA

CITY           SKY/WX    TMP DP  RH WIND       PRES   REMARKS
SIOUX FALLS    MOSUNNY   82  70  66 S14       29.87R
HURON          MOSUNNY   80  66  62 N16       29.85S
CHAMBERLAIN    PTSUNNY   80  65  59 N3        29.88F
MITCHELL       SUNNY     85  68  56 NW15G21   29.85R
YANKTON        SUNNY     84  68  58 S14       29.85S
$$

ABBREVIATIONS USED IN REMARKS
   TC - TEMPERATURE IN CELSIUS
  WCI - WIND CHILL INDEX
   HX - HEAT INDEX
  VSB - VISIBILITY




USA.gov is the U.S. government's official web portal to all federal, state and local government web resources and services.